Date String (YYYY-MM-DD hh:mm:ss) UTC,Instrument flags,Ambient pressure (hPa),Sample flow (lpm),Bypass flow (lpm),Sample temperature (°C),Ambient temperature (°C),ASC tube jacket temperature (°C),LED temperature (°C),Box temperature (°C),Sample RH (%),Span deviation,Mass concentration (μg/m³),Mass concentration (μg/m³),Mass concentration (μg/m³)
DateTimeUTC,F1_M11,P_M11,Q1_M11,Q2_M11,T1_M11,T2_M11,T3_M11,T4_M11,T5_M11,U1_M11,ZSPAN_M11,X0_M11,X2_M11,X1_M11
2022-03-04 07:00:00,,0821.8,5.00,0.00,29.2,28.3,00.0,38.2,30.9,12.1,0000.8,0031.38,0014.24,0011.59
2022-03-04 07:01:00,,0821.8,5.02,0.00,29.2,28.3,00.0,38.2,30.9,12.1,0000.5,0032.03,0014.32,0011.61
2022-03-04 07:02:00,,0821.8,4.99,0.00,29.2,28.3,00.0,38.2,30.9,12.1,0000.8,0032.18,0014.33,0011.61
2022-03-04 07:03:00,,0821.8,4.99,0.00,29.2,28.3,00.0,38.2,30.9,12.1,0001.6,0033.09,0014.41,0011.64
2022-03-04 07:04:00,,0821.8,5.03,0.00,29.2,28.3,00.0,38.2,30.9,12.1,0001.8,0032.96,0014.43,0011.63
2022-03-04 07:05:00,,0821.8,4.99,0.00,29.2,28.2,00.0,38.2,30.9,12.2,0001.9,0032.71,0014.47,0011.61
2022-03-04 07:06:00,,0821.9,4.99,0.00,29.1,28.2,00.0,38.2,30.9,12.2,0002.3,0032.48,0014.50,0011.64
2022-03-04 07:07:00,,0821.8,5.01,0.00,29.1,28.2,00.0,38.1,30.8,12.3,0002.2,0033.52,0014.49,0011.66
2022-03-04 07:08:00,,0821.8,5.00,0.00,29.1,28.2,00.0,38.1,30.8,12.3,0001.7,0034.03,0014.54,0011.69
2022-03-04 07:09:00,,0821.7,5.01,0.00,29.1,28.2,00.0,38.1,30.8,12.4,0001.2,0033.93,0014.55,0011.70
2022-03-04 07:10:00,,0821.7,5.01,0.00,29.0,28.1,00.0,38.1,30.7,12.4,0000.8,0033.31,0014.53,0011.68
2022-03-04 07:11:00,,0821.7,4.99,0.00,29.0,28.1,00.0,38.1,30.7,12.4,0000.7,0031.89,0014.46,0011.68
2022-03-04 07:12:00,,0821.8,5.00,0.00,29.0,28.1,00.0,38.1,30.7,12.4,0001.0,0032.92,0014.49,0011.67
2022-03-04 07:13:00,,0821.9,5.01,0.00,29.0,28.1,00.0,38.1,30.7,12.4,0000.8,0033.11,0014.52,0011.66
2022-03-04 07:14:00,,0821.8,4.99,0.00,29.0,28.1,00.0,38.1,30.6,12.4,0000.2,0032.29,0014.45,0011.65
2022-03-04 07:15:00,,0821.8,5.02,0.00,28.9,28.0,00.0,38.1,30.6,12.4,0000.1,0032.94,0014.38,0011.65
2022-03-04 07:16:00,,0821.8,4.99,0.00,28.9,28.0,00.0,38.0,30.6,12.4,-000.1,0032.98,0014.34,0011.67
2022-03-04 07:17:00,,0821.8,4.99,0.00,28.9,28.0,00.0,38.0,30.6,12.4,-000.3,0033.92,0014.33,0011.64
2022-03-04 07:18:00,,0821.8,5.01,0.00,28.9,28.0,00.0,38.0,30.7,12.4,-000.4,0033.55,0014.26,0011.65
2022-03-04 07:19:00,,0821.8,5.00,0.00,28.9,28.0,00.0,38.0,30.6,12.4,-000.5,0033.79,0014.25,0011.62
2022-03-04 07:20:00,,0821.9,5.01,0.00,28.9,28.0,00.0,38.0,30.6,12.4,-000.4,0035.54,0014.32,0011.63
2022-03-04 07:21:00,,0821.7,5.00,0.00,28.9,28.0,00.0,38.0,30.6,12.4,-000.4,0034.98,0014.29,0011.62
2022-03-04 07:22:00,,0821.8,5.00,0.00,28.9,28.0,00.0,38.0,30.6,12.4,-000.5,0035.19,0014.28,0011.61
2022-03-04 07:23:00,,0821.8,5.01,0.00,28.9,28.0,00.0,37.9,30.6,12.4,-000.1,0033.90,0014.21,0011.60
2022-03-04 07:24:00,,0821.9,4.99,0.00,28.9,28.0,00.0,37.9,30.6,12.3,0000.4,0034.02,0014.23,0011.64
2022-03-04 07:25:00,,0821.9,4.99,0.00,28.9,28.0,00.0,37.9,30.6,12.4,0000.8,0033.81,0014.27,0011.66
2022-03-04 07:26:00,,0821.8,5.02,0.00,28.8,28.0,00.0,37.9,30.5,12.5,0000.6,0033.74,0014.37,0011.66
2022-03-04 07:27:00,,0821.8,5.01,0.00,28.8,28.0,00.0,37.9,30.6,12.5,0000.6,0034.04,0014.35,0011.66
2022-03-04 07:28:00,,0821.8,4.98,0.00,28.8,27.9,00.0,37.9,30.6,12.5,0000.6,0033.20,0014.32,0011.67
2022-03-04 07:29:00,,0821.8,5.00,0.00,28.8,27.9,00.0,37.9,30.5,12.5,0001.0,0032.78,0014.41,0011.67
2022-03-04 07:30:00,,0821.9,5.00,0.00,28.8,27.9,00.0,37.9,30.5,12.5,0000.8,0032.98,0014.39,0011.67
2022-03-04 07:31:00,,0821.9,4.99,0.00,28.8,27.9,00.0,37.9,30.6,12.5,0000.7,0031.85,0014.26,0011.63
2022-03-04 07:32:00,,0821.8,4.99,0.00,28.8,27.9,00.0,37.9,30.6,12.5,0000.9,0031.95,0014.30,0011.64
2022-03-04 07:33:00,,0821.9,5.01,0.00,28.8,27.9,00.0,37.8,30.6,12.5,0001.2,0031.86,0014.34,0011.68
2022-03-04 07:34:00,,0821.8,4.98,0.00,28.8,27.9,00.0,37.8,30.6,12.4,0000.3,0031.42,0014.40,0011.71
2022-03-04 07:35:00,,0821.7,4.99,0.00,28.8,27.9,00.0,37.8,30.6,12.4,-000.7,0032.67,0014.47,0011.70
2022-03-04 07:36:00,,0821.8,5.02,0.00,28.8,27.9,00.0,37.8,30.5,12.4,-001.2,0033.84,0014.43,0011.68
2022-03-04 07:37:00,,0821.8,4.98,0.00,28.8,27.9,00.0,37.8,30.5,12.4,-001.1,0034.33,0014.33,0011.66
2022-03-04 07:38:00,,0821.8,4.99,0.00,28.7,27.9,00.0,37.8,30.5,12.5,-001.3,0034.65,0014.38,0011.69
2022-03-04 07:39:00,,0821.8,5.02,0.00,28.7,27.9,00.0,37.8,30.5,12.5,-001.2,0034.99,0014.39,0011.68
2022-03-04 07:40:00,,0821.9,4.99,0.00,28.7,27.9,00.0,37.8,30.4,12.5,-001.3,0035.00,0014.32,0011.67
2022-03-04 07:41:00,,0821.8,4.99,0.00,28.7,27.8,00.0,37.8,30.4,12.5,-001.4,0033.80,0014.40,0011.72
2022-03-04 07:42:00,,0821.8,5.02,0.00,28.7,27.8,00.0,37.8,30.4,12.5,-001.5,0034.26,0014.50,0011.77
2022-03-04 07:43:00,,0821.8,4.99,0.00,28.7,27.8,00.0,37.8,30.4,12.5,-001.4,0035.43,0014.53,0011.81
2022-03-04 07:44:00,,0821.8,4.99,0.00,28.7,27.8,00.0,37.8,30.4,12.5,-000.9,0036.21,0014.53,0011.82
2022-03-04 07:45:00,,0821.8,5.00,0.00,28.7,27.8,00.0,37.7,30.4,12.5,-000.4,0036.16,0014.43,0011.80
2022-03-04 07:46:00,,0822.0,5.01,0.00,28.7,27.8,00.0,37.7,30.4,12.6,0000.1,0034.58,0014.36,0011.81
2022-03-04 07:47:00,,0822.0,4.98,0.00,28.7,27.8,00.0,37.7,30.4,12.6,0000.3,0034.74,0014.37,0011.85
2022-03-04 07:48:00,,0822.0,5.01,0.00,28.7,27.8,00.0,37.7,30.4,12.6,-000.1,0034.80,0014.44,0011.89
2022-03-04 07:49:00,,0822.0,4.99,0.00,28.7,27.8,00.0,37.7,30.4,12.6,0000.3,0034.72,0014.50,0011.92
2022-03-04 07:50:00,,0821.8,5.00,0.00,28.7,27.8,00.0,37.7,30.4,12.6,0000.8,0035.09,0014.52,0011.94
2022-03-04 07:51:00,,0821.8,5.00,0.00,28.6,27.8,00.0,37.7,30.4,12.6,0000.8,0033.95,0014.59,0011.96
2022-03-04 07:52:00,,0821.8,4.99,0.00,28.6,27.8,00.0,37.7,30.3,12.5,0000.9,0034.57,0014.51,0011.96
2022-03-04 07:53:00,,0821.8,5.01,0.00,28.6,27.7,00.0,37.7,30.3,12.5,0001.0,0034.61,0014.48,0011.96
2022-03-04 07:54:00,,0822.0,5.01,0.00,28.6,27.7,00.0,37.7,30.3,12.6,0001.1,0033.58,0014.45,0011.94
2022-03-04 07:55:00,,0821.9,4.99,0.00,28.6,27.7,00.0,37.7,30.3,12.6,0000.6,0033.34,0014.46,0011.94
2022-03-04 07:56:00,,0821.8,5.00,0.00,28.6,27.7,00.0,37.6,30.3,12.6,0000.6,0033.64,0014.49,0011.93
2022-03-04 07:57:00,,0821.9,5.01,0.00,28.5,27.7,00.0,37.6,30.2,12.7,0000.3,0033.45,0014.47,0011.91
2022-03-04 07:58:00,,0821.8,4.98,0.00,28.5,27.6,00.0,37.6,30.2,12.7,0000.0,0032.59,0014.48,0011.88
2022-03-04 07:59:00,,0821.9,5.01,0.00,28.5,27.6,00.0,37.6,30.2,12.7,0000.3,0031.83,0014.44,0011.86
